Torna al catalogo

ATLAS 5 CENTAUR R/B

LostMEO
NORAD 40295·ROCKET BODY·🇺🇸 United States

Lanciato Oct 29, 2014 da Cape Canaveral Space Force Station

Loading…

Prossimi Passaggi (prossime 24 ore)

TLE

ObsoletoSource: Space-Track

Epoca: Aug 4, 2026, 11:30 UTC

1 40295U 14068B   26216.47973538 -.00000032  00000-0  00000+0 0  9997
2 40295  57.3056  45.2350 0118107 355.5283   4.4158  1.91825319 82445

Traccia ATLAS 5 CENTAUR R/B in tempo reale con AllMySat

Download on the App Store